星链-30208 (STARLINK-30208 )

导读

STARLINK-30208是美国太空探索技术公司星链星座的成员,于2023年7月20日发射入轨,属于星链互联网卫星组网项目的扩容卫星。它依托星链系统低轨卫星星座架构,可为全球偏远地区、海上空中移动载体提供高速低延迟的宽带互联网服务,进一步完善了星链星座的全球覆盖能力与服务稳定性。

基本信息
目录编号:
57415
目录名称:
STARLINK-30208
国际标识:
2023-102M
轨道中心:
EARTH
卫星名称:
星链-30208
卫星全名:
星链-30208 (STARLINK-30208 )
卫星状态:
在轨 (已飞行1064 天)
发射日期:
2023-07-20 UTC
国别 :
美国 (US)
星等 :
--
轨道信息
数据来源 国际轨道数据
星历时间: 2026-06-18T08:17:24+0800
13小时前
查看轨道信息
半长轴: 6861.199km
偏心率: 0.0001064
轨道倾角: 43.004°
近地点辐角 276.849°
升交点赤经 41.952°
平近点角 83.224°
近地点: 482.331km
远地点: 483.793km
周期: 94.267分钟
每日圈数: 15.275758
详细信息
固有亮度:
5
最大亮度:
0.3
卫星平台:
Starlink v2.0 mini
覆盖范围:
全球
运营商:
太空探索技术公司
运营商所在国:
美国
制造商(研发单位):
太空探索技术公司
制造商所在国:
美国
使用方式:
暂无
卫星简介
星链(Starlink)计划是由太空探索技术公司(SpaceX)提出的一个巨型低轨卫星互联网星座项目,计划在2019年至2024年间在太空搭建由约1.2万颗卫星组成的“星链”网络,其中1584颗将部署在地球上空550千米处的近地轨道,并从2020年开始工作。该卫星仍在工作。
2D轨道图
3D轨道图
轨道高度分析图
轨道倾角分析图
轨道综合分析图
查看轨道综合分析图